Theta_e
313 314 314 315 313 311 307 311 316 318 317 316 315 315 314 314 314 318 320 323 321 319 317 321 320 323 323 323 326 330 334 337 337 336 334 328 329 328 326 328 329 329 332 334 336
314 312 314 315 314 312 311 308 309 316 316 315 314 313 312 311 314 313 317 319 319 319 323 323 321 319 322 323 324 327 332 334 331 330 331 328 329 326 327 327 329 331 332 335 335
317 315 313 313 314 312 312 311 309 308 315 314 313 312 309 308 313 316 318 316 315 315 322 322 321 320 321 323 323 324 326 327 330 329 327 327 326 325 327 329 329 329 332 333 335
318 317 315 313 312 313 312 311 310 309 309 312 313 310 308 315 311 319 316 318 316 317 322 322 322 321 320 322 322 322 321 322 326 328 328 327 326 327 325 326 324 323 330 332 332
314 316 317 315 313 312 312 312 310 310 311 310 309 310 311 312 312 316 318 321 322 322 322 323 323 323 322 320 320 321 322 322 323 327 328 328 329 328 328 326 325 323 323 329 331
312 313 315 317 315 313 312 311 311 309 311 310 308 312 314 313 311 312 316 320 322 321 321 322 323 323 324 325 322 324 326 322 321 325 326 328 329 329 328 328 328 328 323 323 326
311 312 312 314 317 315 313 312 311 311 309 310 308 314 313 312 315 316 315 318 322 323 321 321 322 325 324 325 324 326 328 324 322 324 327 326 327 328 327 327 328 329 330 328 326
307 309 311 311 314 316 315 313 311 311 310 310 309 314 313 311 312 313 315 316 321 322 323 322 323 324 326 325 326 326 325 324 320 322 325 326 326 321 319 322 324 325 325 328 328
304 306 308 310 311 314 316 314 312 311 311 310 311 314 314 311 311 313 313 314 318 321 322 323 324 324 325 327 324 325 324 325 324 320 323 327 326 323 320 318 317 321 322 324 325
307 304 306 309 310 311 315 315 312 312 311 311 311 313 311 313 312 311 311 313 317 318 320 321 324 323 323 322 323 323 324 323 322 323 325 325 324 324 322 322 321 322 321 321 322
305 306 304 307 308 309 312 315 313 313 311 310 310 310 311 311 312 313 311 312 316 318 320 320 322 322 322 321 321 320 320 321 319 319 323 323 322 321 320 319 319 320 320 319 319
305 306 305 306 307 309 312 315 312 311 313 310 311 310 312 311 312 313 313 313 316 318 318 320 321 319 318 318 320 321 321 321 317 315 318 319 319 317 316 315 315 316 318 318 318
304 305 305 305 307 309 312 314 312 310 312 311 311 310 311 311 311 313 313 314 313 315 317 318 317 317 318 319 320 320 321 320 319 316 315 315 316 315 314 314 314 314 314 315 316
304 304 306 304 307 309 311 313 312 310 312 312 311 311 311 312 313 311 312 311 313 314 314 316 315 315 318 319 318 320 317 318 318 318 318 313 314 312 311 311 311 311 312 312 313
303 302 304 306 307 309 311 312 312 308 317 312 311 309 311 311 311 313 312 311 313 313 313 314 314 316 316 318 317 318 316 316 317 317 315 314 313 311 311 311 311 310 310 310 311
303 301 303 305 307 309 310 312 309 312 315 311 311 311 313 312 311 313 313 311 311 313 313 312 312 314 314 313 315 314 315 315 315 315 314 313 312 309 308 310 310 310 310 311 312
301 303 302 305 307 307 310 309 313 313 306 309 311 311 314 314 312 313 314 315 313 315 314 313 313 312 313 314 313 316 315 313 313 314 311 310 312 309 309 309 310 309 310 311 311
301 301 302 303 305 307 309 311 313 312 311 308 310 311 313 313 312 313 313 313 313 311 313 314 314 313 312 314 314 316 315 315 313 316 312 309 310 309 310 310 311 310 310 312 313
300 301 301 301 303 307 310 312 312 310 311 310 310 313 314 314 313 313 313 313 312 311 310 313 312 311 311 312 312 315 316 313 313 306 310 309 310 310 311 311 312 312 312 312 311
300 301 301 300 299 304 308 312 309 310 310 310 310 311 314 313 314 313 313 311 312 311 309 309 310 310 310 312 311 313 313 315 313 309 308 306 306 305 309 310 310 311 310 309 309
300 301 300 300 300 300 306 309 307 309 310 311 310 311 312 312 312 313 312 310 311 311 310 308 309 310 311 313 313 312 312 313 313 312 312 308 304 307 307 308 309 308 309 308 307
299 300 299 300 300 301 304 304 307 309 308 310 311 310 311 311 312 312 311 310 310 310 311 309 309 310 311 310 310 310 310 311 312 313 311 311 308 308 308 308 308 308 308 307 306
297 298 300 301 302 303 303 304 305 308 309 309 310 310 309 310 312 311 311 309 309 310 311 310 311 309 312 311 309 311 311 310 311 311 311 311 309 308 308 308 308 308 307 305 304
296 299 299 301 299 301 304 305 306 305 307 309 309 310 310 310 310 311 311 310 308 309 311 310 311 308 308 308 309 311 311 311 311 312 311 310 309 309 309 308 308 306 306 304 306
296 300 299 301 301 301 302 305 304 306 305 303 308 309 311 311 310 310 310 309 308 310 311 310 311 309 307 307 308 310 310 311 313 311 313 311 310 309 309 309 307 305 304 305 306
298 299 298 301 300 301 302 304 303 304 305 305 306 308 309 311 310 310 310 309 308 307 310 310 307 310 309 308 307 308 309 310 311 312 312 312 312 310 309 306 306 306 306 306 306
297 297 300 301 302 301 302 301 302 304 304 302 303 306 308 309 309 308 308 308 307 308 310 310 308 306 311 309 309 312 311 309 309 309 309 311 310 309 307 307 307 306 306 307 304
Wind_Speed
19 19 15 15 11 11 13 14 11 9 7 7 7 8 10 12 13 10 9 3 4 7 7 10 11 4 6 4 1 3 3 5 7 4 2 8 4 2 3 2 2 4 7 13 23
22 20 19 18 14 12 11 12 14 11 9 7 8 8 10 11 12 14 9 10 9 6 6 7 6 7 4 4 4 4 4 7 6 8 6 4 4 8 2 6 5 6 8 20 21
25 23 21 20 18 14 12 11 12 13 12 9 8 8 9 8 7 1 3 9 11 8 4 6 6 5 6 5 5 5 4 9 4 6 8 8 1 2 3 5 0 7 13 14 17
22 26 24 21 20 18 16 12 11 11 13 13 10 8 7 5 3 2 4 7 5 5 6 4 4 3 3 6 8 6 9 6 6 6 4 4 8 1 6 5 7 8 12 13 9
16 20 26 24 22 20 18 15 11 11 9 8 8 5 3 4 4 2 4 6 3 1 7 6 6 5 5 4 7 8 7 10 4 4 3 7 6 8 8 9 6 8 3 9 10
18 16 18 26 24 22 20 17 14 12 11 8 7 5 4 7 4 3 2 6 3 2 6 7 2 6 4 8 6 6 7 11 6 6 4 9 9 7 7 9 10 9 9 9 9
19 18 16 18 25 24 22 19 16 14 12 8 7 6 9 11 1 2 2 1 2 3 2 7 4 4 4 4 3 6 7 8 7 4 6 5 10 11 13 11 10 8 7 7 9
21 19 19 18 19 25 24 21 18 15 12 9 7 7 6 2 12 4 2 3 2 1 3 0 1 6 3 3 1 2 4 3 6 10 6 7 9 9 10 14 16 13 10 9 11
23 22 21 20 19 21 25 23 20 17 12 9 5 6 5 2 9 14 6 4 6 3 0 1 3 3 2 2 3 6 5 10 8 5 8 10 4 8 11 12 10 6 7 7 7
23 25 23 23 21 20 24 24 20 14 12 6 6 4 7 6 6 7 17 6 6 8 3 3 3 4 5 6 6 5 10 7 8 2 3 8 9 9 14 13 8 7 8 8 8
26 26 25 24 25 22 20 12 8 5 14 7 11 4 3 7 6 3 13 11 6 7 7 8 5 10 13 12 12 7 4 7 6 8 6 7 9 11 11 12 11 11 12 11 10
24 25 25 24 24 23 23 7 15 6 5 17 7 18 5 9 3 4 13 9 8 9 10 6 13 10 9 9 11 10 9 9 9 10 4 8 15 14 13 16 17 18 16 13 11
21 24 25 23 22 22 25 32 19 15 3 10 17 11 12 9 5 13 12 7 8 11 13 10 1 17 12 9 11 11 11 9 8 8 9 10 16 17 17 21 23 22 17 13 12
21 22 22 22 16 21 28 30 22 8 5 8 13 9 14 9 7 18 24 7 7 15 12 11 15 6 13 13 9 10 6 11 8 5 4 4 6 7 13 12 9 11 12 15 16
24 21 22 27 10 24 9 23 20 9 10 17 11 12 21 17 9 12 27 8 10 9 8 8 8 13 12 12 8 5 7 3 1 5 7 5 6 6 12 9 10 10 10 8 8
27 25 22 23 27 15 26 28 14 9 10 7 5 15 20 20 9 12 12 10 4 8 9 13 4 4 8 7 10 1 5 5 3 2 5 10 9 5 7 9 8 6 4 6 4
30 25 24 21 13 25 30 13 11 18 6 6 6 16 25 13 17 15 17 19 9 8 14 8 9 1 1 8 5 6 7 1 1 2 8 5 10 10 12 8 4 7 6 8 6
29 27 28 28 18 23 29 10 22 6 17 4 7 15 21 15 16 16 16 16 19 9 9 10 6 16 11 10 7 16 12 4 7 4 4 6 7 5 8 5 2 7 7 7 1
29 27 24 32 35 26 10 21 19 18 17 16 13 13 11 9 9 15 18 18 18 19 8 11 10 7 12 8 10 11 16 7 5 1 1 5 4 5 6 4 6 7 7 6 2
27 22 27 29 35 19 13 19 20 14 20 17 12 10 17 21 12 14 18 16 18 23 15 4 3 6 13 11 9 6 7 6 6 4 5 6 7 7 1 8 8 7 6 5 2
23 7 13 29 24 8 10 15 11 22 15 18 17 11 14 14 15 19 17 10 29 23 21 4 3 2 7 13 16 10 10 7 7 7 4 2 5 1 7 8 10 5 2 3 3
11 8 13 34 11 4 10 4 6 16 19 12 7 11 17 21 17 20 20 15 20 19 28 21 1 4 15 6 10 15 15 14 5 5 6 7 10 5 10 7 7 6 3 5 7
4 4 16 27 11 9 3 6 2 5 24 14 11 20 11 22 14 19 18 14 10 22 18 17 5 4 4 8 7 13 16 18 17 9 17 5 8 14 2 3 2 2 3 6 8
3 4 4 10 6 9 7 3 9 4 5 8 9 9 17 17 16 21 20 9 10 22 13 19 5 16 14 5 10 17 21 23 18 13 24 20 29 19 17 12 9 8 6 7 5
4 3 3 4 15 17 12 6 12 5 5 8 7 15 19 15 26 9 21 15 6 13 17 11 15 14 19 11 12 10 18 20 23 27 16 29 25 26 20 13 8 8 6 6 7
4 3 2 1 6 16 16 6 11 9 8 4 2 3 18 7 18 21 19 16 12 10 20 12 6 16 14 19 9 5 14 21 26 29 22 31 24 33 12 12 15 16 11 10 5
6 2 2 2 6 14 12 17 13 5 8 18 16 12 10 14 16 12 15 19 12 18 23 19 9 6 19 11 8 8 20 21 17 21 21 23 35 23 18 17 18 12 8 4 6
Wind_Direction
238 241 233 238 232 243 245 241 245 255 260 279 293 307 312 316 315 316 279 270 275 299 331 311 299 289 275 262 276 295 270 256 263 234 291 131 163 269 10 55 76 91 60 104 134
240 241 240 237 240 237 244 246 239 244 256 271 289 303 311 322 318 285 266 260 267 302 348 351 317 314 261 229 199 226 227 252 35 1 19 123 234 149 193 186 181 122 101 125 142
241 241 239 239 238 239 237 242 244 236 246 258 278 301 314 331 287 91 324 262 266 255 292 298 297 281 257 237 208 211 240 281 344 26 8 328 45 27 274 277 333 186 152 152 159
244 239 240 238 237 239 236 237 243 244 244 249 262 290 307 318 254 43 344 321 267 209 232 265 245 227 244 233 222 261 267 275 299 61 344 309 339 334 231 274 90 52 132 159 176
251 243 237 237 236 235 235 235 232 240 237 241 243 250 289 228 270 31 16 13 28 155 219 230 245 245 256 239 246 245 274 298 252 120 290 311 284 277 289 296 299 138 125 175 181
243 246 241 234 235 234 233 232 231 224 231 239 226 202 260 243 314 294 277 12 52 196 218 232 303 312 331 289 269 19 323 274 250 217 241 261 268 280 226 244 252 266 188 199 202
238 240 243 242 233 233 231 228 228 227 215 224 211 198 245 237 79 349 250 317 356 341 220 233 297 283 328 251 270 318 298 289 264 261 215 302 263 232 251 271 281 274 253 225 222
247 241 240 240 238 232 230 228 224 226 221 209 203 218 247 237 244 225 222 223 275 312 325 0 257 271 270 35 140 243 240 286 214 209 217 189 263 264 253 227 242 243 253 239 213
248 246 239 237 237 235 227 224 220 217 211 199 172 210 251 249 220 212 214 212 191 182 317 259 251 225 157 225 247 212 239 218 267 221 193 183 247 275 277 253 268 275 262 243 254
242 243 241 234 233 231 228 219 214 205 187 163 238 164 225 211 196 212 205 198 176 177 168 219 216 214 199 188 205 206 219 248 266 195 217 262 258 260 289 296 294 283 284 287 272
233 240 238 234 230 227 223 195 150 194 192 182 189 230 0 127 113 204 185 185 223 203 191 203 202 202 203 214 251 313 323 314 294 252 198 239 266 268 276 282 265 243 242 240 248
233 233 233 234 230 226 222 222 185 145 160 235 231 215 117 152 128 185 173 181 187 194 207 173 230 219 227 223 235 260 270 262 276 288 306 279 270 261 255 258 265 257 251 241 245
232 229 234 232 228 229 219 216 187 156 186 204 225 217 190 185 196 179 185 198 194 197 203 212 101 203 229 215 224 229 236 249 256 301 306 300 289 258 255 244 245 255 257 258 252
226 227 226 225 226 217 222 215 195 181 226 187 197 227 186 190 235 172 190 169 189 212 200 230 239 221 214 228 210 242 211 250 275 314 247 118 285 298 301 288 247 239 233 242 242
222 225 223 209 212 196 191 200 187 113 252 166 172 181 166 178 121 179 183 214 206 193 193 205 195 196 221 212 207 223 310 346 232 289 304 263 276 248 229 247 246 232 220 217 223
216 222 220 220 225 231 199 176 135 196 243 157 152 181 165 194 194 141 169 228 226 222 232 221 65 201 201 225 200 83 124 67 7 280 265 212 212 217 211 218 215 228 252 183 144
215 214 211 209 225 217 176 162 208 215 149 182 172 181 180 173 184 174 174 198 176 179 208 227 190 178 45 204 194 187 152 148 324 206 235 199 207 240 287 300 69 129 115 88 79
216 211 217 212 229 197 169 193 220 203 189 166 164 169 192 159 192 185 171 192 214 219 157 188 215 187 187 204 186 203 183 170 202 204 277 214 235 253 207 207 143 156 126 94 231
212 214 209 214 220 215 209 206 209 197 191 172 165 174 187 180 144 181 194 202 199 203 199 193 228 165 176 194 169 188 219 226 346 154 12 239 253 269 190 178 106 110 126 203 174
201 206 212 209 226 246 216 222 205 206 173 154 170 184 181 184 168 178 183 206 212 212 228 171 202 172 184 200 244 186 151 188 217 218 245 244 244 234 246 164 177 193 192 119 91
196 212 210 198 199 228 233 211 213 214 204 187 197 169 185 182 190 188 190 204 196 201 210 210 190 211 156 205 191 199 222 226 179 214 208 278 245 208 184 171 130 109 113 157 207
196 209 186 178 200 211 227 182 218 215 215 211 229 169 186 180 192 193 205 199 195 193 198 204 164 173 208 160 208 220 223 208 197 202 238 275 239 66 111 67 97 104 82 323 312
193 176 184 177 211 203 151 190 262 190 209 187 207 210 185 183 195 195 203 218 174 188 187 183 211 144 173 237 217 219 218 220 234 266 242 199 259 218 153 113 345 209 215 271 266
166 171 217 196 205 217 216 190 174 206 204 194 200 202 195 192 206 191 202 190 164 189 185 175 180 204 204 176 156 202 212 218 214 219 244 239 260 258 263 282 292 297 284 271 291
196 180 197 243 191 189 198 167 187 163 200 166 191 203 209 200 197 190 196 191 165 186 188 183 217 218 236 248 181 195 207 212 218 231 218 243 246 259 253 259 262 261 279 299 289
165 180 151 357 169 194 192 182 203 190 160 194 211 285 204 222 198 195 187 190 173 194 189 195 232 220 235 242 226 179 201 211 221 232 238 252 259 258 273 291 287 277 285 280 252
170 27 332 200 192 183 201 214 222 204 229 224 207 202 253 229 215 215 201 198 177 177 192 190 191 151 234 222 233 250 226 222 224 234 230 240 243 272 272 268 262 270 249 245 293